Tracking 25686 objects as of 25-May-2022
HD Live streaming from Space Station
objects crossing your sky now

ARIANE 42P DEB

Track ARIANE 42P DEB now!
10-day predictions


NORAD ID: 44511
Int'l Code: 1992-052J
Perigee: 1,281.7 km
Apogee: 1,419.9 km
Inclination: 66.1 °
Period: 112.5 minutes
Semi major axis: 7721 km
RCS: Unknown
Launch date: August 10, 1992
Source: France (FR)
Launch site: FRENCH GUIANA (FRGUI)

Note: This is SATELLITE DEBRIS
aabbcc
Your satellite tracking list
Your tracking list is empty




NASA's NSSDC Master Catalog

Two Line Element Set (TLE):
1 44511U 92052J   22144.68620130  .00001656  00000-0  74747-2 0  9991
2 44511  66.0689 127.3679 0089444 263.2239  95.8592 12.79455232129878
Source of the keplerian elements: AFSPC